World > North America > United States > Connecticut

Guilford, Connecticut Regional Weather

Lat: 41.28N, Lon: 72.68W
Wx Zone: CTZ010
Warning NWS WEATHER ALERT - (More Info. Click Here) Warning
Feedback

Guilford, CT Regional Weather

Expires:202005260700;;765137
ASUS41 KOKX 260614
RWROKX

Regional Weather Roundup
National Weather Service New York NY
200 AM EDT TUE MAY 26 2020

Note: "FAIR" indicates few or no clouds below 12,000 feet with no
significant weather and/or obstructions to visibility.


CTZ002-004>006-009-010-012-RIZ004-006-007-MAZ004-011-015-260700-
Southern New England

 In CT
  
CITY           SKY/WX    TMP DP  RH WIND       PRES   REMARKS
Bradley Intl   CLOUDY    63  60  90 SW5       30.20S                  
Hartford       CLOUDY    64  61  90 SW5       30.20S                  
Danbury        CLOUDY    58  58 100 CALM      30.22S FOG              
Wtrbury/Oxford FOG       59  59 100 CALM      30.22F VSB 1/4          
Norwalk Harbor   N/A     55 N/A N/A NE5         N/A                   
Bridgeport     CLOUDY    58  57  97 NE3       30.21S FOG              
Meriden        CLOUDY    62  60  93 CALM      30.21S FOG              
New Haven      CLOUDY    59  59 100 CALM      30.21F FOG              
Chester        FOG       57  57 100 CALM      30.21F VSB 1            
Groton         CLOUDY    53  50  90 CALM      30.20F FOG              
Willimantic    CLOUDY    63  61  93 CALM      30.20F                  

 In RI
  
CITY           SKY/WX    TMP DP  RH WIND       PRES   REMARKS
Providence     CLOUDY    59  57  93 CALM      30.21F                  
Block Island   LGT RAIN  53  53 100 NE3       30.21F VSB 1/2          
Westerly       CLOUDY    60  55  83 CALM      30.21F                  
 
In MA
  
CITY           SKY/WX    TMP DP  RH WIND       PRES   REMARKS
Boston         FOG       50  50 100 E5        30.23  VSB 3/4          
Worcester      CLOUDY    61  59  93 SW7       30.22S FOG              
Westfield      CLOUDY    61  60  97 S6        30.20F                  
Provincetown   FOG       54  54 100 SE3       30.22F VSB 1/2          
Nantucket      CLOUDY    54  53  97 NE6       30.20F FOG              
$$


SKY/WX - Weather  TMP - Temperature  DP - Dew Point  RH - Relative Humidity
WIND - Wind Direction/Speed PRES - Barometric Pressure VSB - Visibility
WCI - Wind Chill Index E13G22 Wind - East Wind 13 mph/Gusts of 22 mph
Guilford Weather Map
UTC Time: 5/26/2020, 06:22
Your Time: